ROMMA est une association bénévole à but non lucratif. Votre soutien est indispensable : ADHERER à ROMMA ou FAIRE un DON

Chindrieux - (73, Savoie)

Chautagne (260 m)   Longitude: 05°50' E   Latitude: 45°49' N Station partenaire n°74
 

Détail journalier du     <<     >>

Température Precipitation Humidité Pression Vent Dir Rafale Dir. rafale Ensol.
Heure (°C) (mm) (%) (hPa) (km/h) (km/h) (min)
01:00 11.206510132NE8NE0
02:00 9.307010131NE5NE0
03:00 7.7077101305NE0
04:00 7.208210131NE5NE0
05:00 7.1078101205NE0
06:00 6.3081101203NE0
07:00 5.5082101202NE0
08:00 4.8086101305NE0
09:00 4.4087101302NE0
10:00 5.70911012000
11:00 10.306910122NE8SSE50
12:00 14.205910113S8S60
13:00 18.203910102S8SSE60
14:00 19.103810095ESE16SO50
15:00 18.6037100910O24SO30
16:00 18.8036100812OSO27ONO50
17:00 18.5031100812OSO23O50
18:00 17.4031100810SO26O10
19:00 16.7031100810S35SSE0
20:00 15.7038100811SSE24SSE0
21:00 15.3036100910SSE34SE0
22:00 14.304610097SO18O0
23:00 13.904910096SO16SSO0
minuit 13.005110095SO21SO0

Graphique du 02-04-2019

 

Serveur OMMA